ONEWEB-0119, 47265

Orbit data source: Space-Track

ONEWEB-0119, 47265 is a payload satellite owned by One Web (UK) in LEO that was launched on Fri, 18 Dec 2020 UTC via a SOYUZ-2-1B launch vehicle from the Vostochny Cosmodrome (VOSTO). Payload-class satellites include a variety of spacecraft equipped with specific instruments for various scientific and technological missions. These include communications satellites like Starlink; space stations such as the ISS; scientific satellites like the Hubble; Earth observation satellites from companies like Planet Labs, Umbra, and HawkEye 360; GPS; miniature CubeSats for education and research; and military/defense satellites.

Loading next visibility...
Identifier
47265, 2020-100H
Orbit
LEO
Country
Flag of UKUK
Related business
Manufacturer
One Web
Mission
Operational Commercial Communications
Bus & Motor
ARROW, Unknown motor
Mass
148 kg wet, ~140 kg dry
Launch date (UTC)
2020-12-18 (6 years ago)
Launch vehicle
SOYUZ-2-1B
Launch site
Vostochny Cosmodrome (VOSTO)
Object type
Payload
Rocket body
Debris
Shape & HBR
Trap Box + 2 Pan, 6.7 m
Radar Cross Section
3.464 m², Large (>1 m²)

Expand to show TLE details & history
Last TLE update: 2 days ago

TLE from 2 days ago
0 ONEWEB-0119
1 47265U 20100H   26171.40708317  .00000401  00000-0  10789-2 0  9996
2 47265  87.8938 350.0287 0001809  90.6728 269.4608 13.12443293265127
Epoch: 2026-06-20T09:46Z
TLE epoch observation values (Epoch: 2026-06-20T09:46:11.985Z)
Latitude
-0.00003°
Longitude
-65.14339°
Altitude
1,216.626 km
Speed
7.246 km/s
True Right ascension
23h 20m 06s
True Declination
0° 00' 00"
Sunlit
Object was in daylight at epoch
Visualization orbit readout
Latitude
Unknown
Longitude
Unknown
Altitude
Unknown
Speed
Unknown
Apparent Right ascension
Unknown
Apparent Declination
Unknown
Sunlit
N/A
Visualization observer readout
Local Sidereal Time
21:39:35
Azimuth
Unknown
Elevation
Unknown
Doppler factor
Unknown
Orbital elements
Apogee altitude
1,212.212 km
Perigee altitude
1,209.466 km
Semi-major axis
7,588.976 km
Eccentricity
0.00018
Inclination
87.8938°
RAAN
350.0287°
Arg. of periapsis
90.6728°
True anomaly
269.44007°
Mean anomaly
269.4608°
Eccentric anomaly
269.45044°
Mean motion
3.28298 °/min
Orbital period
109.66 mins
BSTAR
0.0010789
Loading maneuver chart data...
Computing Atmospheric mass density...
Loading historical data...
Loading historical data...
Loading historical data...
Loading historical data...
Loading historical data...
Loading historical data...
Loading historical data...

Documentation

Showing up to 5 results
|